Location: Northcutt
(34.7304°N, 84.4305°W)
Time: 17:16:18
(UTC+00:00)

SR - Pass Details

Date: 05 October 2022
Orbit: 577 x 874 km, 66.7° (Epoch: 05 December)

Event Time Altitude Azimuth Distance (km) Brightness Sun altitude
Rises 11:58:18 0° 321° (NW) 3,238 ? 3.8°
Reaches altitude 10° 12:01:03 10° 311° (NW) 2,254 ? 4.4°
Maximum altitude 12:05:24 28° 253° (WSW) 1,292 ? 5.2°
Drops below altitude 10° 12:09:25 10° 194° (SSW) 2,076 ? 6.1°
Sets 12:11:51 0° 182° (S) 2,936 ? 6.6°
